1486249201.18,17589,10.06,72348.5,-8.37,-38.05,-38.11,0,*5B
1486249202.41,17590,10.06,72348.8,-8.37,-38.05,-37.93,0,*56
1486249203.67,17591,10.06,72350.5,-8.37,-38.23,-38.23,0,*57
1486249204.93,17592,10.06,72348.5,-8.37,-38.11,-38.23,0,*55
1486249206.17,17593,10.06,72350.8,-8.37,-38.61,-38.49,0,*5F
1486249207.45,17594,10.06,72348.5,-8.35,-38.23,-38.11,0,*51
1486249208.69,17595,10.06,72346.8,-8.37,-37.93,-37.87,0,*56
1486249209.92,17596,10.06,72350.0,-8.37,-38.05,-37.93,0,*50
1486249211.15,17597,10.06,72348.0,-8.37,-38.05,-37.93,0,*51
1486249212.38,17598,10.06,72348.3,-8.37,-37.93,-38.05,0,*5E
1486249213.64,17599,10.06,72350.0,-8.37,-38.23,-38.29,0,*55
1486249214.85,17600,10.06,72346.5,-8.37,-38.05,-38.05,0,*5C
1486249216.08,17601,10.06,72346.8,-8.37,-37.87,-37.69,0,*5D
1486249217.3,17602,10.06,72346.3,-8.37,-37.27,-37.15,0,*5F
1486249218.59,17603,10.06,72348.3,-8.35,-37.69,-37.63,0,*57
1486249219.85,17604,10.06,72344.8,-8.35,-37.87,-37.93,0,*5F
1486249221.08,17605,10.06,72348.8,-8.37,-38.23,-38.05,0,*5D
1486249222.33,17606,10.06,72346.0,-8.37,-37.93,-37.69,0,*5F
1486249223.57,17607,10.06,72346.5,-8.35,-38.05,-37.87,0,*5C
1486249224.8,17608,10.06,72348.8,-8.37,-38.11,-38.05,0,*51
1486249226.06,17609,10.06,72348.8,-8.37,-38.23,-38.23,0,*55
1486249227.31,17610,10.06,72348.3,-8.37,-38.11,-38.11,0,*5D
1486249228.55,17611,10.06,72346.8,-8.37,-38.43,-38.29,0,*50
1486249229.78,17612,10.06,72346.0,-8.37,-38.23,-38.05,0,*5B
1486249231.03,17613,10.06,72344.5,-8.37,-38.11,-38.11,0,*5E
1486249232.27,17614,10.06,72348.3,-8.37,-38.49,-38.43,0,*53
1486249233.54,17615,10.06,72346.8,-8.37,-38.29,-38.29,0,*58
1486249234.8,17616,10.06,72346.8,-8.35,-38.43,-38.29,0,*55
1486249236.04,17617,10.06,72350.0,-8.37,-38.61,-38.49,0,*50
1486249237.25,17618,10.06,72350.0,-8.37,-38.43,-38.43,0,*55
1486249238.51,17619,10.06,72350.3,-8.37,-38.23,-38.11,0,*55
1486249239.71,17620,10.06,72350.8,-8.41,-38.35,-38.17,0,*5F
1486249240.98,17621,10.06,72350.5,-8.41,-38.49,-38.29,0,*58
1486249242.26,17622,10.06,72350.8,-8.39,-38.67,-38.49,0,*5E
1486249243.49,17623,10.06,72350.0,-8.39,-38.55,-38.35,0,*55
1486249244.75,17624,10.06,72346.8,-8.41,-38.11,-38.11,0,*5B
1486249246.03,17625,10.06,72348.5,-8.39,-38.11,-37.99,0,*5A
1486249247.29,17626,10.06,72344.0,-8.39,-38.29,-38.17,0,*5B
1486249248.55,17627,10.06,72346.5,-8.39,-38.17,-37.99,0,*5E
1486249249.8,17628,10.06,72350.5,-8.41,-38.11,-38.11,0,*57
1486249251.06,17629,10.06,72346.0,-8.39,-38.17,-38.11,0,*5F
1486249252.31,17630,10.06,72350.5,-8.39,-38.17,-38.11,0,*57
1486249253.55,17631,10.06,72344.5,-8.41,-38.17,-37.99,0,*56
1486249254.79,17632,10.06,72344.3,-8.41,-38.49,-38.35,0,*57
1486249256.03,17633,10.06,72348.3,-8.41,-38.55,-38.49,0,*50
1486249257.26,17634,10.06,72344.8,-8.41,-38.35,-38.29,0,*57
1486249258.53,17635,10.06,72348.0,-8.41,-38.49,-38.29,0,*5D
1486249259.79,17636,10.06,72350.8,-8.41,-38.49,-38.49,0,*58
1486249261.06,17637,10.06,72348.8,-8.41,-38.29,-37.99,0,*5D
1486249262.32,17638,10.06,72350.5,-8.41,-38.11,-37.99,0,*59
1486249263.61,17639,10.06,72348.5,-8.39,-37.99,-37.99,0,*58
1486249264.84,17640,10.06,72348.3,-8.41,-38.29,-38.17,0,*54
1486249266.05,17641,10.06,72344.8,-8.45,-38.17,-38.05,0,*5F
1486249267.29,17642,10.06,72348.5,-8.41,-38.29,-38.17,0,*56
1486249268.52,17643,10.06,72348.8,-8.41,-38.29,-38.17,0,*57
1486249269.76,17644,10.06,72348.8,-8.41,-38.49,-38.35,0,*56
1486249271.0,17645,10.06,72348.0,-8.43,-38.43,-38.35,0,*5F
1486249272.23,17646,10.06,72354.3,-8.43,-38.73,-38.61,0,*5E
1486249273.47,17647,10.06,72350.5,-8.45,-38.79,-38.55,0,*54
1486249274.69,17648,10.06,72348.5,-8.45,-38.35,-38.35,0,*55
1486249275.95,17649,10.06,72348.8,-8.43,-38.05,-37.93,0,*52
1486249277.17,17650,10.06,72352.3,-8.43,-38.35,-38.05,0,*59
1486249278.42,17651,10.06,72352.3,-8.43,-38.23,-38.05,0,*5F
1486249279.68,17652,10.06,72348.0,-8.43,-38.05,-37.99,0,*52
1486249280.94,17653,10.06,72344.0,-8.43,-38.05,-37.93,0,*59
1486249282.19,17654,10.06,72348.0,-8.43,-38.05,-37.81,0,*5D
1486249283.45,17655,10.06,72348.3,-8.43,-38.05,-37.93,0,*5F
1486249284.69,17656,10.06,72350.3,-8.45,-38.17,-37.99,0,*53
1486249285.95,17657,10.06,72348.0,-8.43,-38.17,-37.99,0,*54
1486249287.21,17658,10.06,72348.3,-8.43,-38.05,-37.99,0,*58
1486249288.45,17659,10.06,72348.8,-8.45,-38.17,-37.93,0,*56
1486249289.71,17660,10.06,72348.5,-8.43,-38.17,-37.81,0,*59
1486249290.96,17661,10.0,72344.8,-8.43,-38.23,-38.05,0,*5C
1486249292.22,17662,10.06,72350.3,-8.43,-38.17,-37.99,0,*52
1486249293.48,17663,10.06,72350.8,-8.43,-38.23,-38.17,0,*5D
1486249294.76,17664,10.06,72348.8,-8.43,-38.23,-37.99,0,*53
1486249295.99,17665,10.06,72348.5,-8.43,-38.17,-38.05,0,*5F
1486249297.25,17666,10.06,72350.8,-8.43,-38.05,-37.81,0,*5C
1486249298.51,17667,10.06,72350.5,-8.43,-38.05,-37.81,0,*5D
1486249299.77,17668,10.06,72348.8,-8.43,-38.05,-37.81,0,*52
1486249301.01,17669,10.06,72350.8,-8.45,-38.43,-38.23,0,*50
1486249302.24,17670,10.06,72350.8,-8.43,-38.43,-38.35,0,*59
1486249303.49,17671,10.06,72348.0,-8.45,-38.35,-38.23,0,*58
1486249304.7,17672,10.06,72348.8,-8.45,-38.61,-38.55,0,*5B
1486249305.94,17673,10.06,72348.8,-8.43,-38.61,-38.35,0,*5A
1486249307.16,17674,10.06,72348.5,-8.45,-38.61,-38.55,0,*5D
1486249308.38,17675,10.06,72348.8,-8.45,-38.73,-38.55,0,*5F
1486249309.59,17676,10.06,72348.8,-8.45,-38.73,-38.55,0,*5C
1486249310.81,17677,10.06,72350.8,-8.45,-38.73,-38.55,0,*5D
1486249312.05,17678,10.06,72344.5,-8.49,-38.49,-38.43,0,*50
1486249313.29,17679,10.06,72350.5,-8.45,-38.23,-38.05,0,*53
1486249314.5,17680,10.06,72350.3,-8.45,-38.35,-38.17,0,*51
1486249315.74,17681,10.06,72348.5,-8.45,-38.43,-38.23,0,*56
1486249317.0,17682,10.06,72350.5,-8.47,-38.23,-37.87,0,*50
1486249318.29,17683,10.06,72348.5,-8.47,-38.23,-37.99,0,*5E
1486249319.55,17684,10.06,72346.5,-8.49,-38.11,-37.99,0,*56
1486249320.83,17685,10.06,72348.8,-8.47,-38.23,-38.11,0,*57
1486249322.05,17686,10.06,72350.0,-8.45,-38.35,-38.17,0,*57
1486249323.31,17687,10.06,72346.5,-8.47,-38.61,-38.29,0,*58
1486249324.61,17688,10.06,72346.5,-8.47,-38.49,-38.23,0,*57
1486249325.86,17689,10.06,72350.3,-8.47,-38.43,-38.11,0,*5D
1486249327.08,17690,10.0,72348.5,-8.45,-38.43,-38.17,0,*51
1486249328.37,17691,10.06,72346.8,-8.47,-38.49,-38.23,0,*5F
1486249329.65,17692,10.06,72348.8,-8.47,-38.11,-37.69,0,*50
1486249330.89,17693,10.06,72344.3,-8.47,-38.05,-37.87,0,*54
1486249332.18,17694,10.06,72344.3,-8.47,-38.23,-37.99,0,*58
1486249333.43,17695,10.06,72344.8,-8.47,-38.05,-37.69,0,*52
1486249334.7,17696,10.06,72344.5,-8.47,-38.05,-37.81,0,*57
1486249335.94,17697,10.06,72344.3,-8.45,-38.17,-37.93,0,*54
1486249337.15,17698,10.06,72350.5,-8.45,-38.17,-38.05,0,*5B
1486249338.42,17699,10.06,72348.0,-8.45,-38.23,-37.99,0,*57
1486249339.67,17700,10.06,72348.0,-8.43,-37.99,-37.57,0,*5C
1486249340.94,17701,10.06,72348.8,-8.45,-37.93,-37.63,0,*56
1486249342.21,17702,10.0,72344.3,-8.47,-38.23,-37.87,0,*59
1486249343.45,17703,10.0,72344.5,-8.45,-38.17,-37.93,0,*58
1486249344.7,17704,10.0,72344.8,-8.43,-38.05,-37.93,0,*5A
1486249345.94,17705,10.06,72348.8,-8.45,-38.17,-37.93,0,*5E
1486249347.18,17706,10.06,72346.8,-8.45,-38.55,-38.23,0,*5F
1486249348.43,17707,10.06,72348.0,-8.45,-38.55,-38.23,0,*5E
1486249349.65,17708,10.06,72344.0,-8.45,-38.61,-38.35,0,*51
1486249350.86,17709,10.06,72350.0,-8.45,-38.43,-38.05,0,*53
1486249352.13,17710,10.0,72346.0,-8.45,-38.23,-37.99,0,*57
1486249353.34,17711,10.0,72344.8,-8.45,-38.17,-38.05,0,*5B
1486249354.58,17712,10.06,72346.5,-8.45,-38.05,-37.93,0,*5B
1486249355.79,17713,10.06,72348.3,-8.45,-38.05,-37.75,0,*52
1486249357.03,17714,10.0,72342.3,-8.45,-37.99,-37.75,0,*5F
1486249358.29,17715,10.0,72346.8,-8.43,-37.99,-37.75,0,*58
1486249359.53,17716,10.06,72346.3,-8.45,-38.17,-37.99,0,*56
1486249360.77,17717,10.0,72344.3,-8.45,-38.05,-37.93,0,*5E
1486249362.03,17718,10.0,72344.3,-8.43,-38.05,-37.81,0,*54
1486249363.26,17719,10.06,72346.3,-8.43,-38.17,-37.75,0,*5D
1486249364.52,17720,10.06,72344.5,-8.43,-38.05,-37.81,0,*5F
1486249365.77,17721,10.0,72346.8,-8.43,-38.23,-38.05,0,*59
1486249367.04,17722,10.06,72348.0,-8.45,-38.23,-37.99,0,*56
1486249368.31,17723,10.06,72350.0,-8.45,-38.23,-37.99,0,*57
1486249369.57,17724,10.06,72350.8,-8.43,-38.55,-38.23,0,*59
1486249370.78,17725,10.0,72342.3,-8.45,-38.43,-38.17,0,*5E
1486249372.03,17726,10.06,72346.8,-8.45,-38.43,-38.23,0,*5A
1486249373.29,17727,10.0,72344.8,-8.45,-38.23,-37.99,0,*53
1486249374.5,17728,10.06,72348.8,-8.45,-38.35,-38.05,0,*51
1486249375.72,17729,10.0,72348.5,-8.45,-38.73,-38.35,0,*51
1486249376.96,17730,10.0,72348.5,-8.45,-38.43,-38.23,0,*5D
1486249378.18,17731,10.06,72350.3,-8.45,-38.61,-38.35,0,*5B
1486249379.4,17732,10.06,72348.3,-8.45,-38.55,-38.35,0,*5F
1486249380.67,17733,10.06,72348.8,-8.45,-38.23,-37.99,0,*56
1486249381.9,17734,10.0,72348.0,-8.45,-38.17,-37.93,0,*5C
1486249383.15,17735,10.06,72348.3,-8.45,-38.35,-38.23,0,*59
1486249384.36,17736,10.06,72348.8,-8.45,-38.73,-38.55,0,*59
1486249385.58,17737,10.0,72348.0,-8.45,-38.61,-38.55,0,*5B
1486249386.8,17738,10.06,72348.5,-8.45,-38.73,-38.43,0,*50
1486249388.09,17739,10.0,72346.3,-8.47,-38.67,-38.29,0,*5A
1486249389.35,17740,10.0,72344.8,-8.47,-38.79,-38.61,0,*57
1486249390.62,17741,10.0,72346.3,-8.47,-38.79,-38.43,0,*56
1486249391.88,17742,10.0,72346.3,-8.47,-38.61,-38.29,0,*50
1486249393.1,17743,10.06,72346.0,-8.49,-38.61,-38.43,0,*53
1486249394.36,17744,10.06,72350.8,-8.49,-38.67,-38.29,0,*5E
1486249395.62,17745,10.06,72348.8,-8.49,-38.79,-38.49,0,*56
1486249396.86,17746,10.06,72350.3,-8.47,-38.85,-38.61,0,*52
1486249398.13,17747,10.0,72344.0,-8.49,-38.79,-38.67,0,*58
1486249399.34,17748,10.06,72350.5,-8.49,-38.85,-38.61,0,*52
1486249400.6,17749,10.0,72344.5,-8.49,-38.67,-38.49,0,*55
1486249401.84,17750,10.06,72348.3,-8.49,-38.61,-38.29,0,*5D
1486249403.1,17751,10.0,72346.0,-8.49,-38.67,-38.29,0,*5A
1486249404.36,17752,10.0,72344.5,-8.51,-38.73,-38.49,0,*53
1486249405.61,17753,10.06,72348.0,-8.51,-38.73,-38.67,0,*5E
1486249406.85,17754,10.06,72348.3,-8.51,-38.85,-38.73,0,*55
1486249408.11,17755,10.06,72346.5,-8.51,-38.73,-38.49,0,*54
1486249409.35,17756,10.06,72346.8,-8.51,-38.55,-38.35,0,*58
1486249410.61,17757,10.0,72344.5,-8.51,-38.67,-38.35,0,*58
1486249411.87,17758,10.06,72348.3,-8.51,-38.67,-38.55,0,*51
1486249413.15,17759,10.0,72344.3,-8.51,-38.67,-38.49,0,*5D
1486249414.39,17760,10.06,72346.8,-8.51,-38.85,-38.55,0,*56
1486249415.62,17761,10.0,72346.5,-8.55,-38.79,-38.73,0,*54
1486249416.86,17762,10.06,72346.3,-8.55,-38.91,-38.61,0,*52
1486249418.14,17763,10.0,72344.3,-8.51,-38.67,-38.29,0,*52
1486249419.37,17764,10.0,72344.3,-8.55,-38.43,-38.11,0,*5C
1486249420.58,17765,10.0,72344.5,-8.55,-38.55,-38.35,0,*5C
1486249421.82,17766,10.0,72346.3,-8.55,-38.55,-38.23,0,*58
1486249423.02,17767,10.0,72344.8,-8.55,-38.43,-38.17,0,*59
1486249424.23,17768,10.06,72348.0,-8.55,-38.55,-38.17,0,*51
1486249425.46,17769,10.0,72346.8,-8.55,-38.43,-38.23,0,*50
1486249426.73,17770,10.0,72344.0,-8.51,-38.49,-38.35,0,*51
1486249427.94,17771,10.0,72346.8,-8.55,-38.61,-38.43,0,*5F
1486249429.16,17772,10.0,72346.3,-8.55,-38.61,-38.35,0,*5D
1486249430.36,17773,10.0,72346.8,-8.55,-38.43,-38.17,0,*5C
1486249431.61,17774,10.0,72346.8,-8.55,-38.23,-38.11,0,*5B
1486249432.84,17775,10.06,72344.0,-8.55,-38.43,-38.11,0,*5C
1486249434.08,17776,10.0,72346.8,-8.55,-38.35,-37.99,0,*51
1486249435.28,17777,10.0,72344.5,-8.55,-38.43,-38.17,0,*58
1486249436.51,17778,10.06,72344.3,-8.55,-38.35,-38.23,0,*51
1486249437.72,17779,10.0,72340.8,-8.55,-38.43,-38.17,0,*56
1486249438.98,17780,10.0,72346.5,-8.51,-38.49,-38.17,0,*5E
1486249440.22,17781,10.0,72344.5,-8.55,-38.55,-38.23,0,*51
1486249441.43,17782,10.0,72340.0,-8.55,-38.73,-38.35,0,*51
1486249442.64,17783,10.0,72344.5,-8.55,-38.73,-38.43,0,*51
1486249443.84,17784,10.0,72348.3,-8.55,-38.55,-38.17,0,*53
1486249445.05,17785,10.06,72350.3,-8.55,-38.61,-38.43,0,*54
1486249446.29,17786,10.0,72348.8,-8.55,-38.79,-38.61,0,*5E
1486249447.52,17787,10.06,72348.8,-8.59,-38.61,-38.23,0,*5C
1486249448.78,17788,10.06,72348.3,-8.59,-38.23,-37.99,0,*5B
1486249450.03,17789,10.0,72346.5,-8.59,-38.23,-37.99,0,*5A
1486249451.24,17790,10.06,72350.8,-8.55,-38.73,-38.35,0,*52
1486249452.46,17791,10.0,72346.0,-8.55,-38.61,-38.35,0,*50
1486249453.69,17792,10.0,72346.5,-8.55,-38.55,-38.23,0,*53
1486249454.9,17793,10.0,72346.0,-8.55,-38.61,-38.43,0,*53
1486249456.1,17794,10.0,72344.8,-8.59,-38.43,-38.17,0,*59
1486249457.31,17795,10.0,72348.5,-8.59,-38.43,-38.17,0,*58
1486249458.51,17796,10.0,72348.0,-8.59,-38.35,-38.17,0,*5A
1486249459.74,17797,10.0,72346.8,-8.59,-38.55,-38.23,0,*5A
1486249460.98,17798,10.06,72350.5,-8.61,-38.61,-38.43,0,*5F
1486249462.25,17799,10.0,72344.0,-8.61,-38.43,-38.23,0,*58
1486249463.52,17800,10.0,72348.0,-8.61,-38.61,-38.23,0,*57
1486249464.71,17801,10.0,72348.3,-8.59,-38.35,-38.17,0,*5B
1486249465.97,17802,10.0,72346.5,-8.59,-38.23,-37.99,0,*56
1486249467.27,17803,10.0,72346.5,-8.61,-38.49,-38.23,0,*5E
1486249468.52,17804,10.0,72344.5,-8.61,-38.23,-38.05,0,*51
1486249469.75,17805,10.0,72344.8,-8.59,-38.17,-37.93,0,*5C
1486249470.95,17806,10.06,72350.0,-8.59,-38.43,-38.17,0,*5D
1486249472.22,17807,10.0,72346.3,-8.61,-38.49,-38.17,0,*5D
1486249473.44,17808,10.06,72350.0,-8.59,-38.23,-38.17,0,*55
1486249474.67,17809,10.0,72346.5,-8.59,-38.43,-38.11,0,*54
1486249475.93,17810,10.0,72346.5,-8.59,-38.23,-37.99,0,*55
1486249477.18,17811,10.06,72348.8,-8.59,-38.23,-37.99,0,*54
1486249478.42,17812,10.0,72346.8,-8.55,-38.43,-38.23,0,*53
1486249479.63,17813,10.0,72350.0,-8.55,-38.61,-38.35,0,*55
1486249480.86,17814,10.0,72350.0,-8.59,-38.91,-38.61,0,*50
1486249482.08,17815,10.0,72348.3,-8.59,-38.91,-38.73,0,*52
1486249483.31,17816,10.06,72348.0,-8.59,-38.79,-38.61,0,*54
1486249484.51,17817,10.0,72340.8,-8.59,-38.35,-38.17,0,*5C
1486249485.74,17818,10.0,72340.3,-8.59,-38.17,-37.99,0,*5A
1486249486.97,17819,10.0,72342.3,-8.59,-37.99,-37.75,0,*50
1486249488.24,17820,10.0,72340.0,-8.61,-38.17,-37.99,0,*5A
1486249489.47,17821,10.0,72342.3,-8.59,-37.99,-37.57,0,*5B
1486249490.68,17822,10.0,72342.5,-8.59,-38.17,-37.75,0,*51
1486249491.93,17823,10.0,72344.5,-8.59,-37.93,-37.63,0,*54
1486249493.19,17824,10.0,72346.0,-8.55,-38.11,-37.93,0,*55
1486249494.45,17825,10.0,72342.5,-8.55,-38.11,-37.81,0,*57
1486249495.65,17826,10.0,72346.3,-8.55,-38.35,-38.17,0,*52
1486249496.85,17827,10.06,72344.3,-8.55,-38.43,-38.17,0,*52
1486249498.08,17828,10.06,72344.8,-8.55,-38.35,-38.11,0,*5A
1486249499.31,17829,10.0,72342.5,-8.51,-38.17,-38.05,0,*5A
1486249500.54,17830,10.06,72344.8,-8.55,-38.35,-38.23,0,*52
1486249501.75,17831,10.0,72344.0,-8.55,-38.55,-38.43,0,*53
1486249503.01,17832,10.0,72344.3,-8.51,-38.35,-38.11,0,*55
1486249504.24,17833,10.0,72342.0,-8.55,-38.23,-38.17,0,*51
1486249505.5,17834,10.06,72346.3,-8.55,-38.11,-37.81,0,*57
1486249506.76,17835,10.06,72346.0,-8.55,-38.23,-37.99,0,*5E
1486249508.01,17836,10.0,72342.0,-8.55,-38.23,-37.93,0,*57
1486249509.27,17837,10.0,72344.0,-8.51,-38.11,-37.87,0,*56
1486249510.5,17838,10.06,72346.3,-8.55,-38.17,-38.11,0,*5B
1486249511.76,17839,10.0,72342.3,-8.55,-38.23,-37.99,0,*52
1486249512.99,17840,10.0,72342.3,-8.55,-38.17,-37.93,0,*51
1486249514.24,17841,10.0,72346.8,-8.55,-38.11,-37.93,0,*56
1486249515.48,17842,10.0,72340.8,-8.51,-38.17,-37.87,0,*52
1486249516.74,17843,10.0,72342.5,-8.51,-38.11,-37.75,0,*58
1486249518.0,17844,10.0,72344.8,-8.55,-37.99,-37.81,0,*5F
1486249519.26,17845,10.0,72340.8,-8.49,-37.63,-37.51,0,*5B
1486249520.55,17846,10.0,72342.0,-8.51,-37.93,-37.69,0,*55
1486249521.81,17847,10.0,72342.0,-8.49,-37.99,-37.81,0,*51
1486249523.04,17848,10.0,72342.3,-8.49,-38.05,-37.69,0,*52
1486249524.27,17849,10.06,72346.5,-8.49,-38.11,-37.87,0,*56
1486249525.51,17850,10.0,72340.8,-8.49,-38.23,-37.87,0,*5F
1486249526.74,17851,10.0,72342.5,-8.49,-38.05,-37.69,0,*5A
1486249527.97,17852,10.0,72340.3,-8.51,-38.17,-38.05,0,*56
1486249529.2,17853,10.0,72342.3,-8.49,-38.23,-38.05,0,*59
1486249530.44,17854,10.0,72346.8,-8.49,-38.11,-37.87,0,*5A
1486249531.67,17855,10.0,72340.5,-8.49,-38.11,-37.87,0,*5B
1486249532.88,17856,10.0,72346.3,-8.49,-38.05,-37.87,0,*5D
1486249534.12,17857,10.06,72344.0,-8.49,-38.11,-37.87,0,*59
1486249535.38,17858,10.0,72344.3,-8.47,-38.23,-37.87,0,*59
1486249536.67,17859,10.0,72346.0,-8.47,-38.11,-37.99,0,*56
1486249537.9,17860,10.0,72342.3,-8.49,-38.11,-37.87,0,*5D
1486249539.17,17861,10.0,72346.5,-8.47,-38.05,-37.99,0,*58
1486249540.38,17862,10.0,72344.3,-8.49,-38.61,-38.43,0,*5F
1486249541.62,17863,10.0,72342.0,-8.49,-38.43,-38.23,0,*58
1486249542.87,17864,10.0,72340.8,-8.47,-38.23,-38.05,0,*53
1486249544.1,17865,10.0,72344.0,-8.49,-38.23,-38.05,0,*5C
1486249545.37,17866,10.0,72346.0,-8.49,-38.49,-38.29,0,*5D
1486249546.64,17867,10.0,72342.0,-8.51,-38.49,-38.35,0,*58
1486249547.9,17868,10.0,72342.0,-8.51,-38.55,-38.49,0,*51
1486249549.16,17869,10.0,72344.3,-8.49,-38.67,-38.49,0,*58
1486249550.42,17870,10.0,72344.0,-8.49,-38.79,-38.67,0,*53
1486249551.63,17871,10.0,72342.5,-8.49,-38.61,-38.43,0,*5D
1486249552.85,17872,10.0,72342.8,-8.49,-38.61,-38.43,0,*5E
1486249554.13,17873,10.0,72340.3,-8.51,-38.91,-38.67,0,*5F
1486249555.33,17874,10.0,72346.5,-8.55,-38.97,-38.73,0,*5F
1486249556.54,17875,10.0,72344.3,-8.55,-38.73,-38.55,0,*50
1486249557.8,17876,10.0,72344.0,-8.51,-38.85,-38.67,0,*5F
1486249559.07,17877,10.06,72344.0,-8.51,-38.85,-38.49,0,*52
1486249560.28,17878,10.0,72346.0,-8.55,-38.61,-38.35,0,*58
1486249561.55,17879,10.0,72342.5,-8.51,-38.55,-38.29,0,*57
1486249562.8,17880,10.0,72342.0,-8.55,-38.23,-38.11,0,*5F
1486249564.06,17881,10.0,72342.0,-8.51,-38.29,-38.17,0,*56
1486249565.3,17882,10.0,72342.0,-8.51,-38.55,-38.35,0,*5E
1486249566.51,17883,10.0,72342.0,-8.55,-38.61,-38.55,0,*5A
1486249567.72,17884,10.06,72344.3,-8.55,-38.61,-38.43,0,*5A
1486249568.96,17885,10.0,72344.8,-8.55,-38.43,-38.23,0,*5D
1486249570.16,17886,10.0,72346.0,-8.55,-38.73,-38.61,0,*5B
1486249571.4,17887,10.0,72344.0,-8.51,-38.73,-38.55,0,*59
1486249572.6,17888,10.0,72342.8,-8.55,-38.97,-38.73,0,*5C
1486249573.79,17889,10.0,72346.3,-8.55,-38.97,-38.73,0,*5D
1486249575.02,17890,10.0,72344.5,-8.55,-38.97,-38.79,0,*5F
1486249576.23,17891,10.0,72346.8,-8.55,-38.61,-38.43,0,*5E
1486249577.43,17892,10.0,72346.8,-8.59,-38.43,-38.17,0,*50
1486249578.68,17893,10.0,72342.5,-8.59,-38.23,-38.11,0,*51
1486249579.91,17894,10.0,72344.3,-8.59,-38.35,-38.23,0,*50
1486249581.16,17895,10.0,72346.0,-8.59,-38.67,-38.67,0,*56
1486249582.37,17896,10.0,72344.5,-8.59,-38.73,-38.55,0,*51
1486249583.58,17897,10.0,72346.3,-8.59,-38.61,-38.55,0,*53
1486249584.79,17898,10.0,72346.5,-8.59,-38.61,-38.55,0,*5C
1486249586.05,17899,10.0,72344.8,-8.61,-38.67,-38.43,0,*57
1486249587.29,17900,10.0,72344.0,-8.61,-38.61,-38.43,0,*50
1486249588.49,17901,10.0,72344.0,-8.59,-38.43,-38.17,0,*5B
1486249589.69,17902,10.06,72348.0,-8.59,-38.35,-38.17,0,*59
1486249590.95,17903,10.0,72346.8,-8.61,-38.29,-38.17,0,*5E
1486249592.19,17904,10.0,72346.3,-8.61,-38.43,-38.17,0,*55
1486249593.46,17905,10.0,72344.8,-8.61,-38.49,-38.43,0,*5F
1486249594.72,17906,10.0,72346.5,-8.61,-38.67,-38.43,0,*50
1486249595.98,17907,10.0,72342.8,-8.61,-38.67,-38.43,0,*51
1486249597.25,17908,10.0,72344.5,-8.61,-38.43,-38.29,0,*54
1486249598.45,17909,10.0,72344.3,-8.59,-38.35,-38.17,0,*52
1486249599.72,17910,10.0,72344.8,-8.61,-38.43,-38.23,0,*57
1486249600.95,17911,10.0,72344.0,-8.61,-38.43,-38.43,0,*50
1486249602.25,17912,10.0,72344.3,-8.61,-38.79,-38.67,0,*5C
1486249603.48,17913,10.06,72346.5,-8.61,-38.61,-38.61,0,*52
1486249604.71,17914,10.0,72346.0,-8.63,-38.67,-38.61,0,*51
1486249605.98,17915,10.0,72346.3,-8.63,-38.29,-38.23,0,*5C
1486249607.24,17916,10.0,72344.5,-8.61,-38.29,-38.05,0,*59
1486249608.53,17917,10.0,72344.3,-8.61,-38.29,-37.99,0,*52
1486249609.79,17918,10.0,72344.5,-8.61,-38.29,-38.05,0,*57
1486249611.05,17919,10.0,72342.5,-8.61,-38.29,-38.05,0,*56
1486249612.29,17920,10.0,72342.5,-8.61,-38.17,-38.05,0,*51
1486249613.54,17921,10.06,72346.3,-8.59,-37.93,-37.81,0,*5B
1486249614.81,17922,10.0,72340.5,-8.61,-37.99,-37.87,0,*5F
1486249616.04,17923,10.0,72346.8,-8.59,-38.05,-37.81,0,*59
1486249617.31,17924,10.06,72344.8,-8.61,-38.05,-37.81,0,*55
1486249618.56,17925,10.06,72344.0,-8.59,-37.99,-37.81,0,*55
1486249619.82,17926,10.0,72340.3,-8.59,-37.93,-37.81,0,*5C
1486249621.08,17927,10.0,72340.0,-8.61,-38.23,-38.17,0,*52
1486249622.34,17928,10.0,72344.0,-8.61,-38.23,-38.05,0,*5E
1486249623.6,17929,10.06,72346.3,-8.61,-38.29,-38.17,0,*56
1486249624.86,17930,10.0,72344.3,-8.59,-38.29,-38.23,0,*52
1486249626.16,17931,10.0,72346.0,-8.61,-38.29,-38.23,0,*58
1486249627.42,17932,10.0,72340.0,-8.61,-38.29,-38.17,0,*5C
1486249628.65,17933,10.0,72340.8,-8.59,-38.17,-37.99,0,*52
1486249629.89,17934,10.0,72346.3,-8.61,-38.17,-37.87,0,*51
1486249631.16,17935,10.0,72342.0,-8.61,-38.05,-37.99,0,*5C
1486249632.37,17936,10.0,72340.8,-8.59,-38.05,-37.87,0,*5B
1486249633.66,17937,10.0,72342.0,-8.61,-37.99,-37.81,0,*5D
1486249634.92,17938,10.0,72344.3,-8.59,-37.99,-37.81,0,*59
1486249636.14,17939,10.0,72342.3,-8.59,-38.23,-38.05,0,*55
1486249637.39,17940,10.0,72342.3,-8.61,-38.23,-38.05,0,*50
1486249638.65,17941,10.0,72338.0,-8.59,-38.11,-37.99,0,*51
1486249639.88,17942,10.0,72340.8,-8.59,-38.17,-37.99,0,*54
1486249641.11,17943,10.0,72346.3,-8.59,-38.17,-37.99,0,*55
1486249642.31,17944,10.0,72344.5,-8.59,-38.43,-38.17,0,*5A
1486249643.55,17945,10.0,72340.5,-8.59,-38.35,-38.23,0,*5D
1486249644.81,17946,10.0,72342.3,-8.61,-38.43,-38.29,0,*5E
1486249646.04,17947,10.0,72340.5,-8.59,-38.17,-37.99,0,*51
1486249647.31,17948,10.0,72342.0,-8.61,-38.23,-37.87,0,*5D
1486249648.54,17949,10.0,72342.0,-8.59,-38.17,-37.99,0,*5F
1486249649.79,17950,10.0,72342.5,-8.59,-38.23,-38.11,0,*5F
1486249651.02,17951,10.0,72340.5,-8.59,-38.17,-38.11,0,*59
1486249652.26,17952,10.0,72346.0,-8.59,-38.11,-38.11,0,*5C
1486249653.52,17953,10.0,72342.3,-8.59,-38.11,-37.99,0,*52
1486249654.75,17954,10.0,72344.0,-8.59,-38.17,-37.99,0,*53
1486249656.0,17955,10.0,72340.5,-8.59,-38.11,-37.81,0,*5D
1486249657.26,17956,10.0,72340.0,-8.59,-37.93,-37.81,0,*5B
1486249658.52,17957,10.0,72340.0,-8.59,-37.99,-37.81,0,*50
1486249659.75,17958,10.0,72342.8,-8.59,-38.17,-38.11,0,*50
1486249661.0,17959,10.0,72340.5,-8.55,-38.23,-37.99,0,*55
1486249662.27,17960,10.0,72342.8,-8.55,-37.99,-37.81,0,*58
1486249663.52,17961,10.0,72344.0,-8.59,-37.99,-37.93,0,*56
1486249664.77,17962,10.0,72342.8,-8.59,-38.11,-37.93,0,*5A
1486249666.02,17963,10.06,72346.3,-8.59,-38.11,-37.93,0,*5B
1486249667.25,17964,10.0,72344.3,-8.59,-38.17,-37.99,0,*50
1486249668.48,17965,10.0,72346.8,-8.55,-38.23,-38.17,0,*53
1486249669.71,17966,10.0,72344.3,-8.55,-38.35,-38.23,0,*50
1486249670.97,17967,10.0,72346.3,-8.55,-38.23,-38.11,0,*57
1486249672.2,17968,10.0,72344.5,-8.55,-38.23,-38.17,0,*5E
1486249673.46,17969,10.0,72344.0,-8.55,-38.23,-38.23,0,*58
1486249674.72,17970,10.0,72342.3,-8.61,-38.43,-38.23,0,*51
1486249675.93,17971,10.0,72342.8,-8.59,-38.35,-38.35,0,*5D
1486249677.16,17972,10.0,72346.8,-8.61,-38.43,-38.43,0,*55
1486249678.39,17973,10.0,72344.0,-8.59,-38.23,-38.17,0,*58
1486249679.64,17974,10.0,72342.5,-8.59,-38.23,-38.11,0,*59
1486249680.87,17975,10.0,72340.8,-8.55,-38.17,-38.11,0,*53
1486249682.07,17976,10.0,72342.5,-8.55,-38.17,-38.17,0,*56
1486249683.3,17977,10.0,72346.5,-8.59,-38.17,-38.11,0,*5D
1486249684.59,17978,10.0,72346.3,-8.61,-38.23,-38.23,0,*5F
1486249685.85,17979,10.0,72342.0,-8.59,-38.23,-38.23,0,*55
1486249687.05,17980,10.0,72346.3,-8.59,-38.35,-38.17,0,*53
1486249688.27,17981,10.0,72344.3,-8.59,-38.23,-38.17,0,*55
1486249689.53,17982,10.0,72346.3,-8.59,-38.23,-38.23,0,*51
1486249690.75,17983,10.0,72346.8,-8.59,-38.23,-38.17,0,*57
1486249691.98,17984,10.0,72342.5,-8.59,-38.17,-38.11,0,*51
1486249693.23,17985,10.0,72342.8,-8.59,-38.11,-37.99,0,*59
1486249694.49,17986,10.0,72344.0,-8.59,-38.23,-38.23,0,*55
1486249695.71,17987,10.0,72344.8,-8.59,-38.23,-38.17,0,*53
1486249696.97,17988,10.0,72344.0,-8.59,-37.99,-37.99,0,*5B
1486249698.23,17989,10.0,72344.8,-8.59,-37.93,-37.81,0,*59
1486249699.49,17990,10.0,72344.5,-8.59,-37.99,-37.81,0,*5B
1486249700.69,17991,10.0,72346.5,-8.59,-38.43,-38.43,0,*53
1486249701.9,17992,10.0,72342.3,-8.59,-38.43,-38.55,0,*57